Weather History for Defiance, OH

Change the Weather History Date:

Sunday, December 2, 2012

  Actual Average Record
Temperature  
Mean Temperature 52 °F -  
Max Temperature 57 °F 40 °F 65 °F (1970)
Min Temperature 48 °F 25 °F 5 °F (1966)
Degree Days  
Heating Degree Days 12    
Growing Degree Days 2 (Base 50)    
Moisture  
Dew Point 52 °F    
Average Humidity 89    
Maximum Humidity 100    
Minimum Humidity 72    
Precipitation  
Precipitation 0.25 in - - ()
Sea Level Pressure  
Sea Level Pressure 30.02 in    
Wind  
Wind Speed 10 mph (SW)    
Max Wind Speed 18 mph    
Max Gust Speed 25 mph    
Visibility 6 miles    
Events Fog , Rain    
Averages and records for this station are not official NWS values.
T = Trace of Precipitation, MM = Missing Value Source: NWS Daily Summary

Daily Weather History Graph

Daily Weather History Graph

Search for Another Location

Airport:

Trip Planner

Search our weather history database for the weather conditions in past years. The results will help you decide how hot, cold, wet, or windy it might be!

Date:

Astronomy

Dec. 02, 2012 Rise Set
Actual Time 7:45 AM EST 5:08 PM EST
Civil Twilight 7:14 AM EST 5:39 PM EST
Nautical Twilight 6:40 AM EST 6:14 PM EST
Astronomical Twilight 6:07 AM EST 6:47 PM EST
Moon 8:56 PM EST (12/2) 10:34 AM EST (12/2)
Length of Visible Light 10h 24m
Length of Day
9h 23m
Waning Gibbous, 86% of the Moon is Illuminated
Dec 2
Waning Gibbous
Dec 6
Last Quarter
Dec 13
New
Dec 20
First Quarter
Dec 28
Full

Hourly Weather History & Observations

Time (EST) Temp. Dew Point Humidity Pressure Visibility Wind Dir Wind Speed Gust Speed Precip Events Conditions
12:53 AM 55.0 °F 46.0 °F 72% 30.04 in 9.0 mi SSW 18.4 mph 23.0 mph 0.00 in Rain Light Rain
1:53 AM 54.0 °F 48.0 °F 80% 30.01 in 7.0 mi SSW 15.0 mph 25.3 mph 0.13 in Rain Light Rain
2:53 AM 54.0 °F 48.0 °F 80% 30.01 in 10.0 mi South 8.1 mph - 0.00 in   Overcast
3:53 AM 55.0 °F 48.0 °F 77% 29.99 in 10.0 mi SSW 9.2 mph - N/A   Overcast
4:53 AM 55.9 °F 48.9 °F 77% 29.97 in 10.0 mi SSW 10.4 mph - 0.00 in   Overcast
5:53 AM 55.9 °F 48.9 °F 77% 29.96 in 10.0 mi SSW 11.5 mph - N/A   Overcast
6:53 AM 57.0 °F 50.0 °F 77% 29.97 in 10.0 mi SSW 11.5 mph - N/A   Overcast
7:29 AM 57.2 °F 50.0 °F 77% 29.97 in 10.0 mi SSW 13.8 mph 19.6 mph 0.00 in   Overcast
7:53 AM 55.0 °F 51.1 °F 86% 29.98 in 6.0 mi SSW 13.8 mph - 0.01 in Rain Rain
8:41 AM 55.4 °F 51.8 °F 88% 29.98 in 9.0 mi SSW 11.5 mph - 0.02 in   Overcast
8:53 AM 54.0 °F 52.0 °F 93% 29.99 in 4.0 mi SW 11.5 mph - 0.03 in Rain Rain
9:30 AM 55.4 °F 51.8 °F 88% 29.99 in 6.0 mi SW 13.8 mph - 0.01 in Rain Light Rain
9:53 AM 54.0 °F 52.0 °F 93% 29.99 in 2.5 mi SW 10.4 mph - 0.04 in Rain Rain
10:11 AM 55.4 °F 53.6 °F 94% 29.99 in 2.0 mi SW 10.4 mph 19.6 mph 0.04 in Rain Rain
10:14 AM 55.4 °F 53.6 °F 94% 29.99 in 3.0 mi SW 13.8 mph - 0.04 in Rain Light Rain
10:53 AM 55.0 °F 53.1 °F 93% 30.00 in 5.0 mi SW 11.5 mph - 0.04 in   Overcast
11:24 AM 55.4 °F 53.6 °F 94% 30.00 in 6.0 mi SW 9.2 mph - N/A   Overcast
11:33 AM 55.4 °F 53.6 °F 94% 29.99 in 5.0 mi SW 9.2 mph - N/A   Overcast
11:53 AM 55.9 °F 53.1 °F 90% 29.99 in 5.0 mi SW 10.4 mph - N/A   Overcast
12:53 PM 55.9 °F 54.0 °F 93% 29.99 in 7.0 mi SW 6.9 mph - N/A   Overcast
1:05 PM 57.2 °F 53.6 °F 88% 29.99 in 9.0 mi SW 6.9 mph - N/A   Overcast
1:53 PM 57.0 °F 54.0 °F 89% 29.99 in 10.0 mi SW 6.9 mph - N/A   Overcast
2:53 PM 57.9 °F 54.0 °F 87% 29.99 in 10.0 mi SW 6.9 mph - N/A   Overcast
3:53 PM 57.9 °F 55.0 °F 90% 30.01 in 9.0 mi WSW 4.6 mph - N/A   Overcast
4:53 PM 57.9 °F 54.0 °F 87% 30.02 in 7.0 mi SW 5.8 mph - N/A   Overcast
5:53 PM 57.9 °F 54.0 °F 87% 30.04 in 8.0 mi SW 3.5 mph - N/A   Overcast
6:53 PM 57.0 °F 54.0 °F 89% 30.07 in 6.0 mi Calm Calm - N/A   Overcast
7:53 PM 55.9 °F 53.1 °F 90% 30.10 in 4.0 mi Calm Calm - N/A   Overcast
8:50 PM 55.4 °F 53.6 °F 94% 30.09 in 4.0 mi Calm Calm - N/A   Overcast
8:53 PM 55.0 °F 53.1 °F 93% 30.10 in 4.0 mi Calm Calm - N/A   Overcast
9:53 PM 53.1 °F 52.0 °F 96% 30.11 in 3.0 mi Calm Calm - N/A   Overcast
10:53 PM 53.1 °F 52.0 °F 96% 30.11 in 1.5 mi Calm Calm - N/A   Mostly Cloudy
10:58 PM 53.6 °F 51.8 °F 94% 30.10 in 0.8 mi Calm Calm - N/A   Overcast
11:23 PM 51.8 °F 50.0 °F 94% 30.10 in 0.2 mi Calm Calm - N/A Fog Fog
11:33 PM 48.2 °F 48.2 °F 100% 30.10 in 0.2 mi Calm Calm - N/A Fog Fog
11:53 PM 50.0 °F 48.9 °F 96% 30.12 in 0.2 mi Calm Calm - N/A Fog Fog